ORBCOMM FM06 1 25118U 97084G 26236.96353199 .00001044 00000+0 31927-3 0 9992 2 25118 45.0135 81.5797 0000028 17.4698 135.4360 14.47704365504359 ORBCOMM FM04 1 25159U 98007C 26237.16036465 .00000611 00000+0 25424-3 0 9994 2 25159 107.9614 311.3811 0041614 207.6669 152.2257 14.35835301486490 ORBCOMM FM19 1 25415U 98046C 26237.12750488 .00000604 00000+0 23674-3 0 9993 2 25415 44.9933 275.8334 0005669 280.1206 111.7694 14.39604913466711 ORBCOMM FM20 1 25416U 98046D 26236.50875835 .00000422 00000+0 18423-3 0 9993 2 25416 44.9940 287.4584 0002983 260.4779 99.5732 14.38147217466622 ORBCOMM FM27 1 25481U 98053G 26236.77037342 .00000692 00000+0 26679-3 0 9996 2 25481 45.0067 9.5752 0001938 203.0610 157.0152 14.39246342460116 ORBCOMM FM32 1 25982U 99065C 26236.69184762 .00000512 00000+0 21776-3 0 9990 2 25982 45.0140 208.9586 0006054 17.2138 342.8915 14.37213295396947 ORBCOMM FM109 1 40086U 14040A 26237.06386417 .00000297 00000+0 98881-4 0 9997 2 40086 47.0027 125.8291 0001288 200.5840 159.4994 14.58900249644407 ORBCOMM FM110 1 41182U 15081D 26236.45067661 .00000381 00000+0 11670-3 0 9994 2 41182 47.0026 38.6482 0002416 24.6932 335.4069 14.58965011567599 ORBCOMM FM118 1 41183U 15081E 26236.82797081 .00000399 00000+0 12047-3 0 9990 2 41183 47.0048 37.2155 0002750 338.6256 21.4515 14.58948639567757 ORBCOMM FM112 1 41184U 15081F 26237.24199340 .00000438 00000+0 12864-3 0 9993 2 41184 46.9996 303.6849 0002966 186.6276 173.4571 14.58937831569035 ORBCOMM FM113 1 41185U 15081G 26237.22124535 .00000225 00000+0 83767-4 0 9991 2 41185 47.0012 304.1984 0001831 199.2248 160.8569 14.58915749569011 ORBCOMM FM108 1 41187U 15081J 26237.25074622 .00000472 00000+0 13587-3 0 9993 2 41187 47.0036 215.6433 0001817 184.2989 175.7882 14.58956530570168 ORBCOMM FM117 1 41188U 15081K 26237.21686703 .00000262 00000+0 91634-4 0 9996 2 41188 47.0000 214.4213 0002360 186.6850 173.4005 14.58938901570209 ORBCOMM FM116 1 41189U 15081L 26237.19727649 .00000407 00000+0 12216-3 0 9998 2 41189 47.0029 304.3115 0001195 333.4176 26.6648 14.58942026569011